SLAYR23 KNGU-KNIP

Flight info

Callsign SLAYR23
Flight time 3h 18m
Altitude 9000
Route VFR
Aircraft H60/L-VD/C

Departure

Time 2026-05-07 01:34
Airport Norfolk Naval Station (Chambers Field) (KNGU)

Arrival

Time 2026-05-07 04:52
Airport Jacksonville Naval Air Station (Towers Field) (KNIP)
Time Latitude Longitude Altitude Speed Heading
2026-05-07 01:24 36.94011 -76.29320 21 ft 0 kts 269°
2026-05-07 01:32 36.94011 -76.29321 22 ft 2 kts 269°
2026-05-07 01:32 36.93991 -76.29355 25 ft 8 kts 181°
2026-05-07 01:33 36.93915 -76.29356 25 ft 12 kts 176°
2026-05-07 01:33 36.93887 -76.29268 45 ft 21 kts 89°
2026-05-07 01:33 36.93751 -76.28847 177 ft 97 kts 130°
2026-05-07 01:33 36.92979 -76.28447 437 ft 136 kts 174°
2026-05-07 01:34 36.92007 -76.28480 780 ft 139 kts 186°
2026-05-07 01:34 36.91059 -76.28506 1150 ft 136 kts 186°
2026-05-07 01:34 36.90097 -76.28254 1581 ft 140 kts 172°
2026-05-07 01:34 36.89159 -76.27893 1543 ft 139 kts 172°
2026-05-07 01:35 36.88227 -76.27539 1590 ft 142 kts 172°
2026-05-07 01:35 36.87324 -76.27081 1596 ft 141 kts 164°
2026-05-07 01:35 36.86426 -76.26572 1606 ft 144 kts 164°
2026-05-07 01:35 36.85510 -76.26060 1616 ft 143 kts 164°
2026-05-07 01:36 36.84651 -76.25436 1617 ft 146 kts 148°
2026-05-07 01:36 36.83909 -76.24508 1616 ft 150 kts 143°
2026-05-07 01:36 36.83167 -76.23587 1615 ft 151 kts 143°
2026-05-07 01:36 36.82436 -76.22662 1616 ft 149 kts 143°
2026-05-07 01:37 36.81708 -76.21738 1617 ft 148 kts 144°
2026-05-07 01:37 36.80868 -76.21038 1627 ft 150 kts 158°
2026-05-07 01:37 36.79984 -76.20392 1622 ft 147 kts 158°
2026-05-07 01:37 36.79105 -76.19767 1617 ft 145 kts 158°
2026-05-07 01:38 36.78228 -76.19132 1640 ft 147 kts 158°
2026-05-07 01:38 36.77352 -76.18494 1644 ft 144 kts 158°
2026-05-07 01:38 36.76488 -76.17861 1637 ft 144 kts 158°
2026-05-07 01:38 36.75626 -76.17206 1637 ft 146 kts 158°
2026-05-07 01:39 36.74755 -76.16562 1642 ft 144 kts 158°
2026-05-07 01:39 36.73895 -76.15936 1636 ft 141 kts 158°
2026-05-07 01:39 36.73054 -76.15306 1644 ft 140 kts 159°
2026-05-07 01:39 36.72151 -76.15080 1641 ft 133 kts 184°
2026-05-07 01:40 36.71224 -76.14979 1643 ft 136 kts 184°
2026-05-07 01:40 36.70290 -76.14884 1636 ft 133 kts 184°
2026-05-07 01:40 36.69353 -76.14772 1637 ft 133 kts 184°
2026-05-07 01:40 36.68431 -76.14652 1641 ft 137 kts 184°
2026-05-07 01:41 36.67561 -76.14547 1636 ft 133 kts 184°
2026-05-07 01:41 36.66635 -76.14444 1645 ft 135 kts 184°
2026-05-07 01:41 36.65715 -76.14323 1636 ft 131 kts 184°
2026-05-07 01:41 36.64807 -76.14171 1639 ft 132 kts 184°
2026-05-07 01:42 36.63913 -76.14029 1643 ft 132 kts 184°
2026-05-07 01:42 36.63032 -76.13963 1644 ft 129 kts 192°
2026-05-07 01:42 36.62163 -76.13986 1638 ft 124 kts 192°
2026-05-07 01:42 36.61293 -76.14007 1634 ft 125 kts 192°
2026-05-07 01:43 36.60406 -76.14041 1636 ft 125 kts 192°
2026-05-07 01:43 36.59542 -76.14053 1636 ft 129 kts 192°
2026-05-07 01:43 36.58643 -76.14089 1638 ft 129 kts 192°
2026-05-07 01:43 36.57743 -76.14087 1637 ft 130 kts 192°
2026-05-07 01:44 36.56830 -76.14096 1635 ft 129 kts 192°
2026-05-07 01:44 36.55948 -76.14104 1638 ft 126 kts 192°
2026-05-07 01:44 36.55093 -76.14121 1640 ft 124 kts 192°
2026-05-07 01:44 36.54230 -76.14162 1636 ft 124 kts 192°
2026-05-07 01:45 36.53403 -76.14381 1638 ft 128 kts 206°
2026-05-07 01:45 36.52426 -76.14835 1699 ft 170 kts 206°
2026-05-07 01:45 36.51376 -76.15349 1698 ft 157 kts 206°
2026-05-07 01:45 36.50342 -76.15855 1696 ft 161 kts 206°
2026-05-07 01:46 36.49288 -76.16362 1697 ft 164 kts 206°
2026-05-07 01:46 36.48231 -76.16876 1698 ft 160 kts 206°
2026-05-07 01:46 36.47187 -76.17379 1700 ft 162 kts 206°
2026-05-07 01:46 36.46128 -76.17899 1701 ft 165 kts 206°
2026-05-07 01:47 36.45089 -76.18423 1700 ft 159 kts 206°
2026-05-07 01:47 36.44048 -76.18925 1701 ft 162 kts 206°
2026-05-07 01:47 36.42991 -76.19437 1700 ft 163 kts 206°
2026-05-07 01:47 36.41977 -76.19897 1696 ft 154 kts 206°
2026-05-07 01:48 36.40964 -76.20375 1702 ft 157 kts 206°
2026-05-07 01:48 36.39940 -76.20854 1703 ft 157 kts 206°
2026-05-07 01:48 36.38918 -76.21320 1697 ft 157 kts 206°
2026-05-07 01:48 36.37879 -76.21784 1700 ft 160 kts 206°
2026-05-07 01:49 36.36856 -76.22256 1695 ft 157 kts 206°
2026-05-07 01:49 36.35835 -76.22729 1701 ft 157 kts 206°
2026-05-07 01:49 36.34794 -76.23201 1706 ft 160 kts 206°
2026-05-07 01:49 36.33754 -76.23693 1703 ft 158 kts 206°
2026-05-07 01:50 36.32727 -76.24161 1704 ft 157 kts 206°
2026-05-07 01:50 36.31702 -76.24630 1705 ft 158 kts 206°
2026-05-07 01:50 36.30679 -76.25129 1704 ft 158 kts 206°
2026-05-07 01:50 36.29656 -76.25620 1709 ft 158 kts 206°
2026-05-07 01:51 36.28637 -76.26091 1708 ft 157 kts 206°
2026-05-07 01:51 36.27609 -76.26565 1711 ft 157 kts 206°
2026-05-07 01:51 36.26583 -76.27037 1707 ft 157 kts 206°
2026-05-07 01:51 36.25554 -76.27507 1702 ft 158 kts 206°
2026-05-07 01:52 36.24528 -76.27977 1710 ft 157 kts 206°
2026-05-07 01:52 36.23499 -76.28449 1710 ft 156 kts 206°
2026-05-07 01:52 36.22475 -76.28920 1706 ft 159 kts 206°
2026-05-07 01:52 36.21433 -76.29393 1703 ft 160 kts 206°
2026-05-07 01:53 36.20392 -76.29869 1705 ft 157 kts 206°
2026-05-07 01:53 36.19380 -76.30345 1708 ft 156 kts 206°
2026-05-07 01:53 36.18370 -76.30819 1702 ft 157 kts 206°
2026-05-07 01:53 36.17349 -76.31311 1703 ft 156 kts 206°
2026-05-07 01:54 36.16334 -76.31804 1705 ft 156 kts 206°
2026-05-07 01:54 36.15322 -76.32273 1705 ft 155 kts 206°
2026-05-07 01:54 36.14318 -76.32742 1703 ft 155 kts 206°
2026-05-07 01:54 36.13318 -76.33227 1707 ft 154 kts 206°
2026-05-07 01:55 36.12310 -76.33722 1701 ft 157 kts 213°
2026-05-07 01:55 36.11382 -76.34382 1705 ft 152 kts 214°
2026-05-07 01:55 36.10409 -76.34938 1716 ft 152 kts 210°
2026-05-07 01:55 36.09441 -76.35482 1714 ft 152 kts 210°
2026-05-07 01:56 36.08471 -76.36020 1716 ft 153 kts 210°
2026-05-07 01:56 36.07496 -76.36569 1716 ft 155 kts 210°
2026-05-07 01:56 36.06517 -76.37117 1714 ft 155 kts 210°
2026-05-07 01:56 36.05538 -76.37663 1720 ft 152 kts 210°
2026-05-07 01:57 36.04568 -76.38203 1719 ft 153 kts 210°
2026-05-07 01:57 36.03595 -76.38747 1720 ft 154 kts 210°
2026-05-07 01:57 36.02613 -76.39298 1722 ft 155 kts 210°
2026-05-07 01:57 36.01641 -76.39854 1714 ft 154 kts 210°
2026-05-07 01:58 36.00670 -76.40399 1721 ft 154 kts 210°
2026-05-07 01:58 35.99688 -76.40942 1721 ft 154 kts 210°
2026-05-07 01:58 35.98708 -76.41492 1722 ft 155 kts 210°
2026-05-07 01:58 35.97743 -76.42046 1716 ft 152 kts 210°
2026-05-07 01:59 35.96788 -76.42580 1734 ft 148 kts 210°
2026-05-07 01:59 35.95837 -76.43114 1726 ft 152 kts 210°
2026-05-07 01:59 35.94877 -76.43653 1722 ft 151 kts 210°
2026-05-07 01:59 35.93894 -76.44205 1722 ft 154 kts 210°
2026-05-07 02:00 35.92929 -76.44725 1726 ft 154 kts 210°
2026-05-07 02:00 35.91944 -76.45238 1717 ft 154 kts 210°
2026-05-07 02:00 35.90961 -76.45747 1711 ft 153 kts 210°
2026-05-07 02:00 35.89992 -76.46277 1712 ft 152 kts 210°
2026-05-07 02:01 35.89001 -76.46804 1709 ft 158 kts 210°
2026-05-07 02:01 35.87999 -76.47346 1712 ft 158 kts 210°
2026-05-07 02:01 35.87005 -76.47901 1714 ft 153 kts 210°
2026-05-07 02:01 35.86040 -76.48448 1715 ft 153 kts 210°
2026-05-07 02:02 35.85074 -76.48985 1712 ft 153 kts 210°
2026-05-07 02:02 35.84082 -76.49541 1709 ft 159 kts 210°
2026-05-07 02:02 35.83101 -76.50113 1711 ft 157 kts 210°
2026-05-07 02:02 35.82119 -76.50680 1699 ft 155 kts 210°
2026-05-07 02:03 35.81142 -76.51226 1708 ft 154 kts 210°
2026-05-07 02:03 35.80164 -76.51778 1708 ft 154 kts 210°
2026-05-07 02:03 35.79190 -76.52340 1706 ft 156 kts 210°
2026-05-07 02:03 35.78217 -76.52908 1719 ft 154 kts 210°
2026-05-07 02:04 35.77252 -76.53466 1715 ft 152 kts 210°
2026-05-07 02:04 35.76296 -76.54022 1715 ft 148 kts 210°
2026-05-07 02:04 35.75340 -76.54574 1716 ft 155 kts 210°
2026-05-07 02:04 35.74362 -76.55128 1715 ft 156 kts 210°
2026-05-07 02:05 35.73392 -76.55672 1715 ft 154 kts 210°
2026-05-07 02:05 35.72416 -76.56213 1714 ft 153 kts 210°
2026-05-07 02:05 35.71441 -76.56754 1715 ft 153 kts 210°
2026-05-07 02:05 35.70474 -76.57296 1713 ft 152 kts 210°
2026-05-07 02:06 35.69514 -76.57831 1719 ft 151 kts 210°
2026-05-07 02:06 35.68550 -76.58365 1720 ft 152 kts 210°
2026-05-07 02:06 35.67574 -76.58900 1723 ft 154 kts 210°
2026-05-07 02:06 35.66614 -76.59444 1723 ft 151 kts 210°
2026-05-07 02:07 35.65653 -76.59988 1716 ft 152 kts 210°
2026-05-07 02:07 35.63707 -76.61042 1718 ft 153 kts 210°
2026-05-07 02:07 35.62730 -76.61577 1717 ft 155 kts 210°
2026-05-07 02:08 35.61774 -76.62120 1720 ft 150 kts 210°
2026-05-07 02:08 35.60824 -76.62641 1721 ft 150 kts 210°
2026-05-07 02:08 35.59881 -76.63166 1721 ft 151 kts 210°
2026-05-07 02:08 35.58902 -76.63705 1721 ft 154 kts 210°
2026-05-07 02:09 35.57922 -76.64255 1723 ft 155 kts 210°
2026-05-07 02:09 35.56946 -76.64799 1733 ft 156 kts 210°
2026-05-07 02:09 35.55962 -76.65328 1745 ft 154 kts 210°
2026-05-07 02:09 35.54973 -76.65841 1726 ft 155 kts 210°
2026-05-07 02:10 35.53997 -76.66349 1721 ft 151 kts 210°
2026-05-07 02:10 35.53013 -76.66884 1719 ft 158 kts 210°
2026-05-07 02:10 35.52015 -76.67435 1720 ft 158 kts 210°
2026-05-07 02:10 35.51017 -76.67980 1722 ft 155 kts 210°
2026-05-07 02:11 35.50067 -76.68518 1728 ft 150 kts 210°
2026-05-07 02:11 35.49428 -76.68870 1727 ft 153 kts 210°
2026-05-07 02:11 35.48473 -76.69395 1727 ft 148 kts 210°
2026-05-07 02:11 35.47514 -76.69915 1723 ft 148 kts 210°
2026-05-07 02:12 35.46631 -76.70397 1726 ft 141 kts 210°
2026-05-07 02:12 35.45720 -76.70881 1730 ft 141 kts 210°
2026-05-07 02:12 35.44831 -76.71351 1736 ft 135 kts 210°
2026-05-07 02:12 35.43908 -76.71832 1729 ft 148 kts 210°
2026-05-07 02:13 35.42960 -76.72350 1727 ft 150 kts 210°
2026-05-07 02:13 35.41998 -76.72851 1724 ft 149 kts 210°
2026-05-07 02:13 35.41043 -76.73368 1724 ft 149 kts 210°
2026-05-07 02:13 35.40092 -76.73870 1725 ft 149 kts 210°
2026-05-07 02:14 35.39146 -76.74363 1726 ft 146 kts 210°
2026-05-07 02:14 35.38200 -76.74766 1723 ft 145 kts 210°
2026-05-07 02:14 35.37266 -76.75221 1724 ft 148 kts 210°
2026-05-07 02:14 35.36338 -76.75749 1724 ft 147 kts 210°
2026-05-07 02:15 35.35425 -76.76252 1727 ft 146 kts 210°
2026-05-07 02:15 35.34473 -76.76754 1727 ft 148 kts 210°
2026-05-07 02:15 35.33539 -76.77251 1726 ft 148 kts 210°
2026-05-07 02:15 35.32591 -76.77751 1727 ft 148 kts 210°
2026-05-07 02:16 35.31655 -76.78265 1732 ft 147 kts 210°
2026-05-07 02:16 35.30723 -76.78761 1732 ft 144 kts 210°
2026-05-07 02:16 35.29800 -76.79248 1732 ft 145 kts 210°
2026-05-07 02:16 35.28855 -76.79725 1727 ft 147 kts 210°
2026-05-07 02:17 35.27914 -76.80225 1724 ft 149 kts 210°
2026-05-07 02:17 35.26953 -76.80729 1724 ft 149 kts 210°
2026-05-07 02:17 35.26015 -76.81232 1724 ft 146 kts 210°
2026-05-07 02:17 35.25076 -76.81725 1723 ft 147 kts 210°
2026-05-07 02:18 35.24139 -76.82213 1725 ft 147 kts 210°
2026-05-07 02:18 35.23188 -76.82690 1721 ft 149 kts 210°
2026-05-07 02:18 35.22299 -76.83293 1743 ft 144 kts 216°
2026-05-07 02:18 35.21418 -76.83925 1734 ft 147 kts 216°
2026-05-07 02:19 35.20537 -76.84562 1728 ft 149 kts 216°
2026-05-07 02:19 35.19649 -76.85203 1730 ft 146 kts 216°
2026-05-07 02:19 35.18762 -76.85817 1729 ft 148 kts 216°
2026-05-07 02:19 35.17879 -76.86441 1730 ft 147 kts 216°
2026-05-07 02:20 35.16989 -76.87073 1729 ft 152 kts 216°
2026-05-07 02:20 35.16101 -76.87757 1731 ft 150 kts 216°
2026-05-07 02:20 35.15222 -76.88444 1749 ft 152 kts 216°
2026-05-07 02:20 35.14316 -76.89117 1747 ft 151 kts 216°
2026-05-07 02:21 35.13408 -76.89762 1750 ft 150 kts 216°
2026-05-07 02:21 35.12528 -76.90397 1748 ft 146 kts 216°
2026-05-07 02:21 35.11655 -76.91068 1752 ft 150 kts 216°
2026-05-07 02:21 35.10775 -76.91747 1749 ft 150 kts 216°
2026-05-07 02:22 35.09872 -76.92416 1748 ft 151 kts 216°
2026-05-07 02:22 35.08961 -76.93056 1751 ft 151 kts 216°
2026-05-07 02:22 35.08055 -76.93723 1752 ft 152 kts 216°
2026-05-07 02:22 35.07164 -76.94401 1756 ft 151 kts 216°
2026-05-07 02:23 35.06265 -76.95067 1749 ft 150 kts 216°
2026-05-07 02:23 35.05358 -76.95705 1750 ft 150 kts 216°
2026-05-07 02:23 35.04457 -76.96350 1753 ft 148 kts 216°
2026-05-07 02:23 35.03575 -76.97006 1754 ft 148 kts 216°
2026-05-07 02:24 35.02673 -76.97664 1754 ft 154 kts 216°
2026-05-07 02:24 35.01753 -76.98324 1753 ft 155 kts 216°
2026-05-07 02:24 35.00833 -76.98995 1750 ft 152 kts 216°
2026-05-07 02:24 34.99943 -76.99679 1752 ft 151 kts 216°
2026-05-07 02:25 34.99055 -77.00373 1752 ft 152 kts 216°
2026-05-07 02:25 34.98163 -77.01039 1753 ft 150 kts 216°
2026-05-07 02:25 34.97256 -77.01686 1752 ft 152 kts 216°
2026-05-07 02:25 34.96366 -77.02334 1750 ft 149 kts 216°
2026-05-07 02:26 34.95476 -77.03020 1748 ft 153 kts 216°
2026-05-07 02:26 34.94583 -77.03715 1750 ft 152 kts 216°
2026-05-07 02:26 34.93704 -77.04391 1751 ft 147 kts 216°
2026-05-07 02:26 34.92831 -77.05042 1759 ft 148 kts 216°
2026-05-07 02:27 34.91965 -77.05696 1759 ft 147 kts 216°
2026-05-07 02:27 34.91081 -77.06362 1758 ft 150 kts 216°
2026-05-07 02:27 34.90192 -77.07048 1755 ft 150 kts 216°
2026-05-07 02:27 34.89294 -77.07708 1756 ft 150 kts 216°
2026-05-07 02:28 34.88424 -77.08368 1754 ft 147 kts 216°
2026-05-07 02:28 34.87560 -77.09034 1756 ft 147 kts 216°
2026-05-07 02:28 34.86695 -77.09691 1754 ft 147 kts 216°
2026-05-07 02:28 34.85811 -77.10332 1762 ft 150 kts 216°
2026-05-07 02:29 34.84918 -77.10972 1763 ft 147 kts 216°
2026-05-07 02:29 34.84026 -77.11609 1763 ft 150 kts 216°
2026-05-07 02:29 34.83136 -77.12272 1764 ft 150 kts 216°
2026-05-07 02:29 34.82246 -77.12939 1764 ft 151 kts 216°
2026-05-07 02:30 34.81358 -77.13589 1768 ft 145 kts 216°
2026-05-07 02:30 34.80480 -77.14216 1767 ft 147 kts 216°
2026-05-07 02:30 34.79615 -77.14848 1766 ft 145 kts 216°
2026-05-07 02:30 34.78752 -77.15501 1769 ft 148 kts 216°
2026-05-07 02:31 34.77887 -77.16165 1766 ft 148 kts 216°
2026-05-07 02:31 34.77003 -77.16831 1766 ft 149 kts 216°
2026-05-07 02:31 34.76123 -77.17493 1765 ft 149 kts 216°
2026-05-07 02:31 34.75239 -77.18153 1766 ft 150 kts 216°
2026-05-07 02:32 34.74376 -77.18818 1765 ft 145 kts 216°
2026-05-07 02:32 34.73513 -77.19481 1768 ft 147 kts 216°
2026-05-07 02:32 34.72660 -77.20146 1767 ft 146 kts 216°
2026-05-07 02:32 34.71794 -77.20794 1766 ft 149 kts 216°
2026-05-07 02:33 34.70924 -77.21444 1766 ft 147 kts 216°
2026-05-07 02:33 34.70049 -77.22095 1768 ft 148 kts 216°
2026-05-07 02:33 34.69165 -77.22765 1767 ft 151 kts 216°
2026-05-07 02:33 34.68275 -77.23436 1764 ft 151 kts 216°
2026-05-07 02:34 34.67383 -77.24113 1749 ft 150 kts 216°
2026-05-07 02:34 34.66504 -77.24754 1750 ft 147 kts 216°
2026-05-07 02:34 34.65609 -77.25404 1749 ft 152 kts 216°
2026-05-07 02:34 34.64698 -77.26043 1750 ft 152 kts 216°
2026-05-07 02:35 34.63787 -77.26707 1752 ft 152 kts 216°
2026-05-07 02:35 34.62976 -77.27426 1753 ft 145 kts 222°
2026-05-07 02:35 34.62186 -77.28210 1752 ft 148 kts 222°
2026-05-07 02:35 34.61392 -77.29012 1752 ft 149 kts 222°
2026-05-07 02:36 34.60572 -77.29811 1751 ft 153 kts 222°
2026-05-07 02:36 34.59762 -77.30610 1751 ft 149 kts 222°
2026-05-07 02:36 34.58997 -77.31415 1750 ft 138 kts 229°
2026-05-07 02:36 34.58348 -77.32304 1750 ft 146 kts 229°
2026-05-07 02:37 34.57663 -77.33235 1754 ft 151 kts 229°
2026-05-07 02:37 34.56968 -77.34190 1756 ft 151 kts 229°
2026-05-07 02:37 34.56272 -77.35118 1752 ft 148 kts 229°
2026-05-07 02:37 34.55577 -77.36031 1755 ft 147 kts 229°
2026-05-07 02:38 34.54882 -77.36944 1754 ft 147 kts 229°
2026-05-07 02:38 34.54190 -77.37865 1753 ft 149 kts 229°
2026-05-07 02:38 34.53496 -77.38814 1752 ft 149 kts 229°
2026-05-07 02:38 34.52806 -77.39745 1753 ft 148 kts 229°
2026-05-07 02:39 34.52126 -77.40666 1753 ft 148 kts 229°
2026-05-07 02:39 34.51438 -77.41586 1751 ft 147 kts 229°
2026-05-07 02:39 34.50658 -77.42387 1762 ft 144 kts 219°
2026-05-07 02:39 34.49811 -77.43089 1754 ft 149 kts 219°
2026-05-07 02:40 34.48968 -77.43797 1749 ft 149 kts 219°
2026-05-07 02:40 34.48123 -77.44516 1751 ft 148 kts 219°
2026-05-07 02:40 34.47282 -77.45233 1749 ft 147 kts 219°
2026-05-07 02:40 34.46438 -77.45950 1751 ft 150 kts 219°
2026-05-07 02:41 34.45580 -77.46666 1752 ft 148 kts 219°
2026-05-07 02:41 34.44741 -77.47377 1751 ft 147 kts 219°
2026-05-07 02:41 34.43902 -77.48087 1751 ft 148 kts 219°
2026-05-07 02:41 34.43060 -77.48800 1752 ft 149 kts 219°
2026-05-07 02:42 34.42203 -77.49519 1752 ft 150 kts 219°
2026-05-07 02:42 34.41344 -77.50240 1751 ft 150 kts 219°
2026-05-07 02:42 34.40491 -77.50952 1750 ft 150 kts 219°
2026-05-07 02:42 34.39652 -77.51655 1756 ft 146 kts 219°
2026-05-07 02:43 34.38821 -77.52356 1753 ft 145 kts 219°
2026-05-07 02:43 34.37995 -77.53067 1751 ft 145 kts 219°
2026-05-07 02:43 34.37157 -77.53785 1750 ft 150 kts 219°
2026-05-07 02:43 34.36296 -77.54484 1745 ft 149 kts 219°
2026-05-07 02:44 34.35440 -77.55185 1740 ft 149 kts 219°
2026-05-07 02:44 34.34592 -77.55917 1742 ft 150 kts 219°
2026-05-07 02:44 34.33747 -77.56635 1746 ft 148 kts 219°
2026-05-07 02:44 34.32917 -77.57349 1746 ft 147 kts 219°
2026-05-07 02:45 34.32068 -77.58064 1750 ft 150 kts 219°
2026-05-07 02:45 34.31215 -77.58803 1750 ft 151 kts 219°
2026-05-07 02:45 34.30374 -77.59548 1744 ft 147 kts 219°
2026-05-07 02:45 34.29548 -77.60260 1746 ft 145 kts 219°
2026-05-07 02:46 34.28710 -77.60961 1748 ft 145 kts 219°
2026-05-07 02:46 34.27864 -77.61657 1746 ft 149 kts 219°
2026-05-07 02:46 34.27009 -77.62387 1750 ft 152 kts 219°
2026-05-07 02:46 34.26146 -77.63118 1749 ft 150 kts 219°
2026-05-07 02:47 34.25312 -77.63843 1747 ft 148 kts 218°
2026-05-07 02:47 34.24469 -77.64540 1748 ft 148 kts 216°
2026-05-07 02:47 34.23600 -77.65231 1748 ft 151 kts 216°
2026-05-07 02:47 34.22708 -77.65903 1748 ft 152 kts 216°
2026-05-07 02:48 34.21812 -77.66546 1746 ft 150 kts 216°
2026-05-07 02:48 34.20922 -77.67172 1744 ft 151 kts 216°
2026-05-07 02:48 34.20017 -77.67814 1745 ft 150 kts 216°
2026-05-07 02:48 34.19122 -77.68476 1745 ft 152 kts 216°
2026-05-07 02:49 34.18233 -77.69144 1748 ft 151 kts 216°
2026-05-07 02:49 34.17323 -77.69808 1742 ft 155 kts 216°
2026-05-07 02:49 34.16398 -77.70458 1748 ft 152 kts 216°
2026-05-07 02:49 34.15482 -77.71102 1745 ft 150 kts 216°
2026-05-07 02:50 34.14594 -77.71749 1746 ft 149 kts 216°
2026-05-07 02:50 34.13705 -77.72411 1744 ft 150 kts 216°
2026-05-07 02:50 34.12807 -77.73070 1744 ft 152 kts 216°
2026-05-07 02:50 34.11903 -77.73739 1748 ft 153 kts 216°
2026-05-07 02:51 34.10997 -77.74426 1754 ft 155 kts 216°
2026-05-07 02:51 34.10107 -77.75105 1752 ft 151 kts 216°
2026-05-07 02:51 34.09215 -77.75780 1754 ft 152 kts 216°
2026-05-07 02:51 34.08328 -77.76490 1752 ft 154 kts 216°
2026-05-07 02:52 34.07423 -77.77203 1752 ft 155 kts 216°
2026-05-07 02:52 34.06537 -77.77908 1753 ft 151 kts 216°
2026-05-07 02:52 34.05651 -77.78581 1754 ft 150 kts 216°
2026-05-07 02:52 34.04758 -77.79245 1757 ft 152 kts 216°
2026-05-07 02:53 34.03846 -77.79918 1755 ft 155 kts 216°
2026-05-07 02:53 34.02927 -77.80617 1753 ft 155 kts 216°
2026-05-07 02:53 34.02037 -77.81308 1757 ft 151 kts 216°
2026-05-07 02:53 34.01158 -77.82006 1759 ft 152 kts 216°
2026-05-07 02:54 34.00274 -77.82688 1765 ft 150 kts 216°
2026-05-07 02:54 33.99392 -77.83378 1762 ft 150 kts 216°
2026-05-07 02:54 33.98509 -77.84056 1763 ft 152 kts 216°
2026-05-07 02:54 33.97915 -77.84497 1762 ft 151 kts 216°
2026-05-07 02:55 33.97020 -77.85153 1762 ft 150 kts 216°
2026-05-07 02:55 33.96134 -77.85833 1763 ft 152 kts 216°
2026-05-07 02:55 33.95234 -77.86510 1765 ft 154 kts 216°
2026-05-07 02:55 33.94334 -77.87177 1765 ft 149 kts 216°
2026-05-07 02:56 33.93448 -77.87844 1767 ft 152 kts 216°
2026-05-07 02:56 33.92553 -77.88525 1770 ft 152 kts 216°
2026-05-07 02:56 33.91677 -77.89201 1766 ft 150 kts 216°
2026-05-07 02:56 33.90809 -77.89891 1768 ft 150 kts 216°
2026-05-07 02:57 33.89938 -77.90588 1765 ft 151 kts 216°
2026-05-07 02:57 33.89038 -77.91262 1768 ft 154 kts 216°
2026-05-07 02:57 33.88131 -77.91948 1766 ft 154 kts 216°
2026-05-07 02:57 33.87236 -77.92657 1766 ft 153 kts 216°
2026-05-07 02:58 33.86349 -77.93361 1770 ft 153 kts 216°
2026-05-07 02:58 33.85464 -77.94086 1768 ft 155 kts 216°
2026-05-07 02:58 33.84578 -77.94801 1770 ft 152 kts 216°
2026-05-07 02:58 33.83695 -77.95507 1769 ft 153 kts 216°
2026-05-07 02:59 33.82804 -77.96207 1765 ft 153 kts 216°
2026-05-07 02:59 33.81910 -77.96922 1769 ft 155 kts 216°
2026-05-07 02:59 33.81015 -77.97608 1767 ft 153 kts 216°
2026-05-07 02:59 33.80114 -77.98295 1766 ft 151 kts 216°
2026-05-07 03:00 33.79235 -77.98993 1769 ft 152 kts 216°
2026-05-07 03:00 33.78351 -77.99708 1765 ft 154 kts 216°
2026-05-07 03:00 33.77450 -78.00412 1767 ft 155 kts 216°
2026-05-07 03:00 33.76537 -78.01104 1766 ft 155 kts 216°
2026-05-07 03:01 33.75644 -78.01796 1764 ft 153 kts 216°
2026-05-07 03:01 33.74748 -78.02489 1757 ft 154 kts 216°
2026-05-07 03:01 33.73866 -78.03185 1758 ft 150 kts 216°
2026-05-07 03:01 33.72993 -78.03879 1763 ft 150 kts 216°
2026-05-07 03:02 33.72119 -78.04579 1766 ft 152 kts 216°
2026-05-07 03:02 33.71235 -78.05274 1764 ft 151 kts 216°
2026-05-07 03:02 33.70368 -78.05982 1766 ft 150 kts 216°
2026-05-07 03:02 33.69499 -78.06673 1766 ft 150 kts 216°
2026-05-07 03:03 33.68616 -78.07358 1758 ft 153 kts 216°
2026-05-07 03:03 33.67717 -78.08059 1759 ft 155 kts 216°
2026-05-07 03:03 33.66788 -78.08708 1763 ft 156 kts 206°
2026-05-07 03:03 33.65761 -78.09172 1766 ft 158 kts 205°
2026-05-07 03:04 33.64728 -78.09628 1765 ft 158 kts 205°
2026-05-07 03:04 33.63709 -78.10090 1758 ft 155 kts 205°
2026-05-07 03:04 33.62697 -78.10573 1758 ft 160 kts 205°
2026-05-07 03:04 33.61678 -78.11078 1763 ft 159 kts 205°
2026-05-07 03:05 33.60665 -78.11566 1764 ft 156 kts 205°
2026-05-07 03:05 33.59671 -78.12041 1765 ft 155 kts 205°
2026-05-07 03:05 33.58671 -78.12543 1766 ft 156 kts 205°
2026-05-07 03:05 33.57656 -78.13016 1765 ft 158 kts 205°
2026-05-07 03:06 33.56637 -78.13484 1764 ft 157 kts 205°
2026-05-07 03:06 33.55643 -78.13973 1763 ft 154 kts 205°
2026-05-07 03:06 33.54658 -78.14481 1766 ft 154 kts 205°
2026-05-07 03:06 33.53654 -78.14986 1765 ft 156 kts 205°
2026-05-07 03:07 33.52642 -78.15470 1765 ft 157 kts 205°
2026-05-07 03:07 33.51634 -78.15950 1766 ft 156 kts 205°
2026-05-07 03:07 33.50623 -78.16442 1767 ft 156 kts 205°
2026-05-07 03:07 33.49614 -78.16930 1765 ft 157 kts 205°
2026-05-07 03:08 33.48604 -78.17414 1764 ft 158 kts 205°
2026-05-07 03:08 33.47582 -78.17890 1766 ft 157 kts 205°
2026-05-07 03:08 33.46569 -78.18353 1768 ft 156 kts 205°
2026-05-07 03:08 33.45557 -78.18831 1764 ft 156 kts 205°
2026-05-07 03:09 33.44548 -78.19322 1764 ft 157 kts 205°
2026-05-07 03:09 33.43542 -78.19777 1771 ft 154 kts 205°
2026-05-07 03:09 33.42534 -78.20230 1770 ft 156 kts 205°
2026-05-07 03:09 33.41525 -78.20708 1770 ft 156 kts 205°
2026-05-07 03:10 33.40519 -78.21189 1770 ft 156 kts 205°
2026-05-07 03:10 33.39520 -78.21671 1768 ft 155 kts 205°
2026-05-07 03:10 33.38510 -78.22159 1771 ft 156 kts 205°
2026-05-07 03:10 33.37499 -78.22651 1769 ft 159 kts 205°
2026-05-07 03:11 33.36475 -78.23144 1770 ft 159 kts 205°
2026-05-07 03:11 33.35448 -78.23647 1772 ft 156 kts 205°
2026-05-07 03:11 33.34442 -78.24145 1769 ft 158 kts 205°
2026-05-07 03:11 33.33439 -78.24633 1773 ft 156 kts 205°
2026-05-07 03:12 33.32418 -78.25124 1770 ft 156 kts 205°
2026-05-07 03:12 33.31404 -78.25613 1771 ft 157 kts 205°
2026-05-07 03:12 33.30392 -78.26100 1771 ft 156 kts 205°
2026-05-07 03:12 33.29383 -78.26592 1769 ft 157 kts 205°
2026-05-07 03:13 33.28379 -78.27080 1769 ft 156 kts 205°
2026-05-07 03:13 33.27399 -78.27609 1771 ft 155 kts 210°
2026-05-07 03:13 33.26436 -78.28211 1771 ft 157 kts 210°
2026-05-07 03:13 33.25471 -78.28812 1770 ft 157 kts 210°
2026-05-07 03:14 33.24503 -78.29432 1768 ft 158 kts 210°
2026-05-07 03:14 33.23543 -78.30054 1773 ft 157 kts 210°
2026-05-07 03:14 33.21625 -78.31247 1771 ft 155 kts 210°
2026-05-07 03:15 33.20646 -78.31867 1774 ft 157 kts 210°
2026-05-07 03:15 33.19683 -78.32476 1773 ft 158 kts 210°
2026-05-07 03:15 33.18728 -78.33072 1777 ft 156 kts 210°
2026-05-07 03:15 33.17758 -78.33675 1773 ft 156 kts 210°
2026-05-07 03:16 33.16798 -78.34273 1770 ft 155 kts 210°
2026-05-07 03:16 33.15839 -78.34875 1771 ft 156 kts 210°
2026-05-07 03:16 33.14874 -78.35481 1770 ft 157 kts 210°
2026-05-07 03:16 33.13914 -78.36087 1773 ft 156 kts 210°
2026-05-07 03:17 33.12957 -78.36707 1776 ft 155 kts 210°
2026-05-07 03:17 33.12007 -78.37308 1777 ft 154 kts 210°
2026-05-07 03:17 33.11039 -78.37908 1775 ft 157 kts 210°
2026-05-07 03:17 33.10070 -78.38506 1772 ft 154 kts 210°
2026-05-07 03:18 33.09133 -78.39095 1776 ft 154 kts 210°
2026-05-07 03:18 33.08166 -78.39711 1774 ft 160 kts 210°
2026-05-07 03:18 33.07230 -78.40310 1774 ft 160 kts 210°
2026-05-07 03:18 33.06263 -78.40933 1771 ft 158 kts 210°
2026-05-07 03:19 33.05297 -78.41558 1773 ft 157 kts 210°
2026-05-07 03:19 33.04326 -78.42172 1775 ft 161 kts 210°
2026-05-07 03:19 33.03345 -78.42778 1774 ft 160 kts 210°
2026-05-07 03:19 33.02378 -78.43391 1774 ft 156 kts 210°
2026-05-07 03:20 33.01421 -78.43998 1773 ft 155 kts 210°
2026-05-07 03:20 33.00452 -78.44594 1770 ft 160 kts 210°
2026-05-07 03:20 32.99458 -78.45194 1771 ft 162 kts 210°
2026-05-07 03:20 32.98504 -78.45834 1775 ft 155 kts 216°
2026-05-07 03:21 32.97689 -78.46702 1775 ft 160 kts 224°
2026-05-07 03:21 32.96875 -78.47595 1777 ft 158 kts 224°
2026-05-07 03:21 32.96062 -78.48490 1772 ft 157 kts 223°
2026-05-07 03:21 32.95278 -78.49392 1775 ft 158 kts 224°
2026-05-07 03:22 32.94474 -78.50292 1776 ft 160 kts 224°
2026-05-07 03:22 32.93661 -78.51181 1777 ft 159 kts 224°
2026-05-07 03:22 32.92846 -78.52081 1777 ft 156 kts 224°
2026-05-07 03:22 32.92047 -78.52985 1775 ft 159 kts 224°
2026-05-07 03:23 32.91261 -78.53885 1772 ft 155 kts 224°
2026-05-07 03:23 32.90473 -78.54767 1777 ft 155 kts 218°
2026-05-07 03:23 32.89661 -78.55637 1774 ft 159 kts 223°
2026-05-07 03:23 32.88873 -78.56547 1774 ft 160 kts 223°
2026-05-07 03:24 32.88078 -78.57454 1771 ft 156 kts 223°
2026-05-07 03:24 32.87288 -78.58338 1774 ft 158 kts 223°
2026-05-07 03:24 32.86486 -78.59250 1774 ft 160 kts 223°
2026-05-07 03:24 32.85687 -78.60162 1773 ft 155 kts 223°
2026-05-07 03:25 32.84922 -78.61036 1774 ft 153 kts 223°
2026-05-07 03:25 32.84155 -78.61921 1777 ft 155 kts 223°
2026-05-07 03:25 32.83369 -78.62831 1774 ft 157 kts 223°
2026-05-07 03:25 32.82595 -78.63745 1774 ft 159 kts 223°
2026-05-07 03:26 32.81824 -78.64646 1780 ft 155 kts 223°
2026-05-07 03:26 32.81033 -78.65548 1777 ft 159 kts 223°
2026-05-07 03:26 32.80235 -78.66437 1776 ft 156 kts 223°
2026-05-07 03:26 32.79449 -78.67318 1778 ft 152 kts 223°
2026-05-07 03:27 32.78680 -78.68204 1777 ft 153 kts 223°
2026-05-07 03:27 32.77898 -78.69072 1769 ft 157 kts 223°
2026-05-07 03:27 32.77080 -78.69952 1773 ft 160 kts 223°
2026-05-07 03:27 32.76280 -78.70829 1773 ft 152 kts 223°
2026-05-07 03:28 32.75487 -78.71686 1766 ft 154 kts 223°
2026-05-07 03:28 32.74692 -78.72567 1773 ft 158 kts 223°
2026-05-07 03:28 32.73884 -78.73416 1774 ft 152 kts 223°
2026-05-07 03:28 32.73096 -78.74261 1775 ft 154 kts 223°
2026-05-07 03:29 32.72296 -78.75138 1776 ft 159 kts 223°
2026-05-07 03:29 32.71464 -78.76011 1774 ft 159 kts 223°
2026-05-07 03:29 32.70637 -78.76875 1774 ft 156 kts 223°
2026-05-07 03:29 32.69830 -78.77753 1774 ft 159 kts 223°
2026-05-07 03:30 32.69020 -78.78633 1777 ft 155 kts 224°
2026-05-07 03:30 32.68207 -78.79484 1775 ft 155 kts 223°
2026-05-07 03:30 32.67404 -78.80326 1775 ft 156 kts 224°
2026-05-07 03:30 32.66582 -78.81177 1773 ft 161 kts 223°
2026-05-07 03:31 32.65750 -78.82066 1772 ft 160 kts 223°
2026-05-07 03:31 32.64927 -78.82943 1775 ft 155 kts 224°
2026-05-07 03:31 32.64124 -78.83822 1774 ft 157 kts 224°
2026-05-07 03:31 32.63309 -78.84700 1774 ft 160 kts 223°
2026-05-07 03:32 32.62476 -78.85602 1777 ft 164 kts 224°
2026-05-07 03:32 32.61669 -78.86515 1778 ft 159 kts 224°
2026-05-07 03:32 32.60866 -78.87386 1776 ft 157 kts 224°
2026-05-07 03:32 32.60053 -78.88289 1775 ft 162 kts 224°
2026-05-07 03:33 32.59240 -78.89204 1775 ft 159 kts 224°
2026-05-07 03:33 32.58431 -78.90104 1776 ft 159 kts 224°
2026-05-07 03:33 32.57631 -78.90997 1778 ft 156 kts 224°
2026-05-07 03:33 32.56833 -78.91876 1777 ft 157 kts 224°
2026-05-07 03:34 32.56022 -78.92760 1774 ft 156 kts 224°
2026-05-07 03:34 32.55222 -78.93630 1776 ft 158 kts 224°
2026-05-07 03:34 32.54411 -78.94514 1781 ft 158 kts 224°
2026-05-07 03:34 32.53603 -78.95425 1777 ft 158 kts 224°
2026-05-07 03:35 32.52801 -78.96289 1777 ft 158 kts 224°
2026-05-07 03:35 32.51983 -78.97192 1778 ft 163 kts 224°
2026-05-07 03:35 32.51175 -78.98114 1784 ft 160 kts 224°
2026-05-07 03:35 32.50374 -78.99007 1781 ft 157 kts 224°
2026-05-07 03:36 32.49588 -78.99893 1778 ft 154 kts 224°
2026-05-07 03:36 32.48798 -79.00782 1777 ft 159 kts 224°
2026-05-07 03:36 32.47996 -79.01669 1780 ft 159 kts 224°
2026-05-07 03:36 32.47210 -79.02557 1782 ft 153 kts 224°
2026-05-07 03:37 32.46427 -79.03436 1782 ft 155 kts 224°
2026-05-07 03:37 32.45620 -79.04310 1781 ft 158 kts 224°
2026-05-07 03:37 32.44824 -79.05186 1781 ft 158 kts 224°
2026-05-07 03:37 32.44004 -79.06078 1778 ft 159 kts 224°
2026-05-07 03:38 32.43204 -79.06980 1784 ft 158 kts 224°
2026-05-07 03:38 32.42396 -79.07887 1783 ft 163 kts 224°
2026-05-07 03:38 32.41566 -79.08782 1780 ft 161 kts 224°
2026-05-07 03:38 32.40767 -79.09692 1776 ft 158 kts 224°
2026-05-07 03:39 32.39983 -79.10614 1777 ft 160 kts 224°
2026-05-07 03:39 32.39188 -79.11536 1775 ft 158 kts 224°
2026-05-07 03:39 32.38403 -79.12432 1775 ft 159 kts 224°
2026-05-07 03:39 32.37607 -79.13355 1770 ft 161 kts 224°
2026-05-07 03:40 32.36810 -79.14267 1774 ft 156 kts 224°
2026-05-07 03:40 32.36277 -79.14856 1780 ft 160 kts 224°
2026-05-07 03:40 32.35193 -79.16061 1780 ft 159 kts 224°
2026-05-07 03:40 32.34660 -79.16679 1780 ft 160 kts 224°
2026-05-07 03:41 32.33843 -79.17597 1779 ft 164 kts 224°
2026-05-07 03:41 32.33020 -79.18508 1779 ft 163 kts 224°
2026-05-07 03:41 32.32211 -79.19426 1779 ft 162 kts 224°
2026-05-07 03:41 32.31396 -79.20328 1783 ft 161 kts 224°
2026-05-07 03:42 32.30599 -79.21257 1779 ft 160 kts 224°
2026-05-07 03:42 32.29789 -79.22174 1781 ft 161 kts 224°
2026-05-07 03:42 32.28961 -79.23088 1779 ft 164 kts 224°
2026-05-07 03:42 32.28152 -79.23968 1780 ft 158 kts 224°
2026-05-07 03:43 32.27355 -79.24856 1782 ft 155 kts 224°
2026-05-07 03:43 32.26545 -79.25745 1780 ft 161 kts 224°
2026-05-07 03:43 32.25738 -79.26646 1779 ft 154 kts 224°
2026-05-07 03:43 32.24950 -79.27535 1779 ft 160 kts 224°
2026-05-07 03:44 32.24142 -79.28445 1776 ft 160 kts 224°
2026-05-07 03:44 32.23340 -79.29379 1773 ft 164 kts 224°
2026-05-07 03:44 32.22554 -79.30299 1777 ft 156 kts 224°
2026-05-07 03:44 32.21783 -79.31205 1777 ft 158 kts 224°
2026-05-07 03:45 32.20999 -79.32135 1780 ft 162 kts 224°
2026-05-07 03:45 32.20219 -79.33046 1783 ft 154 kts 224°
2026-05-07 03:45 32.19452 -79.33957 1781 ft 159 kts 224°
2026-05-07 03:45 32.18676 -79.34857 1783 ft 156 kts 224°
2026-05-07 03:46 32.17900 -79.35761 1783 ft 155 kts 224°
2026-05-07 03:46 32.17116 -79.36669 1780 ft 161 kts 224°
2026-05-07 03:46 32.16312 -79.37612 1780 ft 163 kts 224°
2026-05-07 03:46 32.15521 -79.38526 1782 ft 159 kts 224°
2026-05-07 03:47 32.14733 -79.39471 1784 ft 164 kts 224°
2026-05-07 03:47 32.13949 -79.40398 1787 ft 156 kts 224°
2026-05-07 03:47 32.13167 -79.41313 1789 ft 161 kts 224°
2026-05-07 03:47 32.12376 -79.42254 1782 ft 162 kts 224°
2026-05-07 03:48 32.11589 -79.43168 1779 ft 161 kts 224°
2026-05-07 03:48 32.10778 -79.44107 1775 ft 162 kts 224°
2026-05-07 03:48 32.09983 -79.45014 1777 ft 156 kts 224°
2026-05-07 03:48 32.09185 -79.45906 1779 ft 162 kts 224°
2026-05-07 03:49 32.08368 -79.46831 1779 ft 161 kts 224°
2026-05-07 03:49 32.07585 -79.47742 1779 ft 157 kts 224°
2026-05-07 03:49 32.06783 -79.48649 1783 ft 162 kts 224°
2026-05-07 03:49 32.05989 -79.49580 1781 ft 158 kts 224°
2026-05-07 03:50 32.05193 -79.50484 1780 ft 161 kts 224°
2026-05-07 03:50 32.04382 -79.51420 1781 ft 165 kts 224°
2026-05-07 03:50 32.03587 -79.52356 1781 ft 157 kts 224°
2026-05-07 03:50 32.02789 -79.53247 1781 ft 159 kts 224°
2026-05-07 03:51 32.01980 -79.54167 1783 ft 163 kts 224°
2026-05-07 03:51 32.01184 -79.55082 1782 ft 159 kts 224°
2026-05-07 03:51 32.00388 -79.56001 1782 ft 162 kts 224°
2026-05-07 03:51 31.99599 -79.56924 1785 ft 161 kts 224°
2026-05-07 03:52 31.98804 -79.57881 1783 ft 164 kts 224°
2026-05-07 03:52 31.98036 -79.58833 1783 ft 156 kts 224°
2026-05-07 03:52 31.97256 -79.59748 1785 ft 161 kts 224°
2026-05-07 03:52 31.96467 -79.60698 1782 ft 164 kts 224°
2026-05-07 03:53 31.95695 -79.61663 1786 ft 161 kts 224°
2026-05-07 03:53 31.94915 -79.62594 1787 ft 160 kts 224°
2026-05-07 03:53 31.94134 -79.63527 1787 ft 161 kts 224°
2026-05-07 03:53 31.93337 -79.64466 1788 ft 163 kts 224°
2026-05-07 03:54 31.92534 -79.65407 1789 ft 162 kts 224°
2026-05-07 03:54 31.91761 -79.66336 1791 ft 158 kts 224°
2026-05-07 03:54 31.90976 -79.67273 1789 ft 163 kts 224°
2026-05-07 03:54 31.90216 -79.68236 1787 ft 160 kts 224°
2026-05-07 03:55 31.89442 -79.69165 1786 ft 161 kts 224°
2026-05-07 03:55 31.88649 -79.70125 1783 ft 166 kts 224°
2026-05-07 03:55 31.87855 -79.71082 1786 ft 163 kts 224°
2026-05-07 03:55 31.87043 -79.72024 1785 ft 166 kts 224°
2026-05-07 03:56 31.86245 -79.72965 1787 ft 158 kts 224°
2026-05-07 03:56 31.85460 -79.73899 1782 ft 160 kts 224°
2026-05-07 03:56 31.84704 -79.74829 1784 ft 156 kts 224°
2026-05-07 03:56 31.83944 -79.75755 1785 ft 159 kts 224°
2026-05-07 03:57 31.83164 -79.76707 1781 ft 161 kts 224°
2026-05-07 03:57 31.82385 -79.77662 1786 ft 161 kts 224°
2026-05-07 03:57 31.81600 -79.78603 1783 ft 165 kts 224°
2026-05-07 03:57 31.80799 -79.79578 1792 ft 162 kts 224°
2026-05-07 03:58 31.80010 -79.80535 1785 ft 164 kts 224°
2026-05-07 03:58 31.79213 -79.81482 1784 ft 163 kts 224°
2026-05-07 03:58 31.78448 -79.82411 1784 ft 160 kts 224°
2026-05-07 03:58 31.77659 -79.83341 1787 ft 162 kts 224°
2026-05-07 03:59 31.76869 -79.84299 1785 ft 163 kts 224°
2026-05-07 03:59 31.76079 -79.85227 1789 ft 159 kts 224°
2026-05-07 03:59 31.75289 -79.86156 1790 ft 162 kts 224°
2026-05-07 03:59 31.74497 -79.87099 1792 ft 160 kts 224°
2026-05-07 04:00 31.73708 -79.88032 1794 ft 159 kts 224°
2026-05-07 04:00 31.72932 -79.88969 1792 ft 162 kts 224°
2026-05-07 04:00 31.72151 -79.89916 1791 ft 157 kts 224°
2026-05-07 04:00 31.71399 -79.90865 1792 ft 160 kts 224°
2026-05-07 04:01 31.70614 -79.91813 1783 ft 162 kts 224°
2026-05-07 04:01 31.69836 -79.92756 1785 ft 161 kts 224°
2026-05-07 04:01 31.69048 -79.93698 1789 ft 161 kts 224°
2026-05-07 04:01 31.68261 -79.94641 1792 ft 162 kts 224°
2026-05-07 04:02 31.67460 -79.95572 1797 ft 162 kts 224°
2026-05-07 04:02 31.66668 -79.96516 1796 ft 162 kts 224°
2026-05-07 04:02 31.65886 -79.97480 1794 ft 164 kts 224°
2026-05-07 04:02 31.65087 -79.98418 1794 ft 163 kts 224°
2026-05-07 04:03 31.64290 -79.99376 1790 ft 163 kts 224°
2026-05-07 04:03 31.63499 -80.00334 1791 ft 163 kts 224°
2026-05-07 04:03 31.62716 -80.01289 1791 ft 164 kts 224°
2026-05-07 04:03 31.61925 -80.02260 1790 ft 163 kts 224°
2026-05-07 04:04 31.61131 -80.03204 1794 ft 164 kts 224°
2026-05-07 04:04 31.60327 -80.04161 1791 ft 162 kts 224°
2026-05-07 04:04 31.59556 -80.05107 1790 ft 162 kts 224°
2026-05-07 04:04 31.58767 -80.06055 1790 ft 163 kts 224°
2026-05-07 04:05 31.57959 -80.06972 1788 ft 163 kts 224°
2026-05-07 04:05 31.57181 -80.07913 1793 ft 162 kts 224°
2026-05-07 04:05 31.56389 -80.08864 1794 ft 163 kts 224°
2026-05-07 04:05 31.55606 -80.09810 1795 ft 162 kts 224°
2026-05-07 04:06 31.54824 -80.10767 1792 ft 160 kts 224°
2026-05-07 04:06 31.54068 -80.11730 1789 ft 161 kts 224°
2026-05-07 04:06 31.53295 -80.12692 1788 ft 164 kts 224°
2026-05-07 04:06 31.52515 -80.13644 1788 ft 159 kts 224°
2026-05-07 04:07 31.51760 -80.14606 1790 ft 161 kts 227°
2026-05-07 04:07 31.51068 -80.15640 1786 ft 162 kts 233°
2026-05-07 04:07 31.50445 -80.16750 1793 ft 163 kts 237°
2026-05-07 04:07 31.49905 -80.17913 1793 ft 162 kts 241°
2026-05-07 04:08 31.49449 -80.19125 1792 ft 163 kts 246°
2026-05-07 04:08 31.49077 -80.20388 1792 ft 165 kts 249°
2026-05-07 04:08 31.48792 -80.21697 1792 ft 166 kts 253°
2026-05-07 04:08 31.48599 -80.23029 1792 ft 167 kts 256°
2026-05-07 04:09 31.48369 -80.24317 1801 ft 155 kts 239°
2026-05-07 04:09 31.47871 -80.25385 1787 ft 149 kts 233°
2026-05-07 04:09 31.47221 -80.26336 1795 ft 149 kts 226°
2026-05-07 04:09 31.46551 -80.27205 1790 ft 156 kts 226°
2026-05-07 04:10 31.45821 -80.28140 1791 ft 160 kts 226°
2026-05-07 04:10 31.45073 -80.29103 1791 ft 158 kts 226°
2026-05-07 04:10 31.44333 -80.30064 1793 ft 158 kts 226°
2026-05-07 04:10 31.43597 -80.31011 1791 ft 161 kts 226°
2026-05-07 04:11 31.42854 -80.31969 1796 ft 159 kts 226°
2026-05-07 04:11 31.42104 -80.32928 1792 ft 159 kts 226°
2026-05-07 04:11 31.41340 -80.33887 1790 ft 164 kts 226°
2026-05-07 04:11 31.40556 -80.34888 1788 ft 164 kts 226°
2026-05-07 04:12 31.39819 -80.35840 1792 ft 160 kts 226°
2026-05-07 04:12 31.39072 -80.36811 1793 ft 161 kts 226°
2026-05-07 04:12 31.38303 -80.37784 1791 ft 164 kts 226°
2026-05-07 04:12 31.37525 -80.38766 1791 ft 162 kts 226°
2026-05-07 04:13 31.36772 -80.39732 1793 ft 162 kts 226°
2026-05-07 04:13 31.36003 -80.40701 1794 ft 164 kts 226°
2026-05-07 04:13 31.35237 -80.41657 1796 ft 159 kts 226°
2026-05-07 04:13 31.34485 -80.42608 1799 ft 160 kts 226°
2026-05-07 04:14 31.33715 -80.43571 1795 ft 164 kts 226°
2026-05-07 04:14 31.32953 -80.44552 1796 ft 161 kts 226°
2026-05-07 04:14 31.32209 -80.45541 1795 ft 163 kts 226°
2026-05-07 04:14 31.31458 -80.46536 1795 ft 164 kts 226°
2026-05-07 04:15 31.30707 -80.47513 1798 ft 161 kts 226°
2026-05-07 04:15 31.29958 -80.48491 1797 ft 162 kts 226°
2026-05-07 04:15 31.29210 -80.49483 1794 ft 162 kts 226°
2026-05-07 04:15 31.28465 -80.50461 1793 ft 160 kts 226°
2026-05-07 04:16 31.27728 -80.51443 1794 ft 162 kts 226°
2026-05-07 04:16 31.26977 -80.52442 1793 ft 164 kts 226°
2026-05-07 04:16 31.26248 -80.53423 1795 ft 158 kts 226°
2026-05-07 04:16 31.25524 -80.54380 1793 ft 156 kts 226°
2026-05-07 04:17 31.24786 -80.55308 1796 ft 156 kts 226°
2026-05-07 04:17 31.24052 -80.56248 1799 ft 157 kts 226°
2026-05-07 04:17 31.23327 -80.57208 1798 ft 156 kts 226°
2026-05-07 04:17 31.22594 -80.58160 1795 ft 157 kts 226°
2026-05-07 04:18 31.21848 -80.59084 1796 ft 155 kts 226°
2026-05-07 04:18 31.21114 -80.60014 1796 ft 156 kts 226°
2026-05-07 04:18 31.20397 -80.60974 1798 ft 157 kts 226°
2026-05-07 04:18 31.19678 -80.61932 1800 ft 156 kts 226°
2026-05-07 04:19 31.18938 -80.62875 1794 ft 158 kts 226°
2026-05-07 04:19 31.18191 -80.63823 1793 ft 159 kts 226°
2026-05-07 04:19 31.17479 -80.64762 1802 ft 157 kts 226°
2026-05-07 04:19 31.16748 -80.65711 1803 ft 157 kts 226°
2026-05-07 04:20 31.16005 -80.66656 1798 ft 156 kts 226°
2026-05-07 04:20 31.15276 -80.67606 1800 ft 158 kts 226°
2026-05-07 04:20 31.14548 -80.68577 1801 ft 159 kts 226°
2026-05-07 04:21 31.13047 -80.70455 1800 ft 158 kts 226°
2026-05-07 04:21 31.12315 -80.71392 1800 ft 155 kts 226°
2026-05-07 04:21 31.11602 -80.72352 1800 ft 157 kts 226°
2026-05-07 04:21 31.10870 -80.73310 1802 ft 159 kts 226°
2026-05-07 04:22 31.10131 -80.74282 1801 ft 159 kts 224°
2026-05-07 04:22 31.09349 -80.75161 1792 ft 157 kts 223°
2026-05-07 04:22 31.08571 -80.76052 1797 ft 157 kts 223°
2026-05-07 04:22 31.07793 -80.76967 1800 ft 160 kts 223°
2026-05-07 04:23 31.07018 -80.77879 1800 ft 158 kts 223°
2026-05-07 04:23 31.06236 -80.78774 1803 ft 157 kts 223°
2026-05-07 04:23 31.05449 -80.79663 1798 ft 156 kts 223°
2026-05-07 04:23 31.04695 -80.80561 1802 ft 156 kts 223°
2026-05-07 04:24 31.03950 -80.81470 1801 ft 158 kts 223°
2026-05-07 04:24 31.03166 -80.82388 1795 ft 161 kts 223°
2026-05-07 04:24 31.02375 -80.83280 1799 ft 158 kts 223°
2026-05-07 04:24 31.01606 -80.84174 1802 ft 156 kts 223°
2026-05-07 04:25 31.00832 -80.85087 1799 ft 159 kts 223°
2026-05-07 04:25 31.00047 -80.85995 1798 ft 158 kts 223°
2026-05-07 04:25 30.99279 -80.86892 1801 ft 157 kts 223°
2026-05-07 04:25 30.98514 -80.87809 1802 ft 158 kts 223°
2026-05-07 04:26 30.97727 -80.88724 1803 ft 160 kts 223°
2026-05-07 04:26 30.96945 -80.89610 1803 ft 157 kts 223°
2026-05-07 04:26 30.96182 -80.90502 1806 ft 155 kts 223°
2026-05-07 04:26 30.95411 -80.91396 1801 ft 159 kts 223°
2026-05-07 04:27 30.94863 -80.91986 1794 ft 158 kts 223°
2026-05-07 04:27 30.93794 -80.93138 1799 ft 159 kts 223°
2026-05-07 04:27 30.92973 -80.94009 1797 ft 161 kts 223°
2026-05-07 04:27 30.92170 -80.94886 1802 ft 158 kts 223°
2026-05-07 04:28 30.91368 -80.95769 1802 ft 159 kts 223°
2026-05-07 04:28 30.90556 -80.96648 1801 ft 160 kts 223°
2026-05-07 04:28 30.90010 -80.97242 1802 ft 159 kts 223°
2026-05-07 04:28 30.89211 -80.98128 1802 ft 158 kts 223°
2026-05-07 04:29 30.88413 -80.99012 1801 ft 158 kts 223°
2026-05-07 04:29 30.87629 -80.99872 1800 ft 157 kts 223°
2026-05-07 04:29 30.86826 -81.00758 1801 ft 158 kts 223°
2026-05-07 04:29 30.86041 -81.01620 1802 ft 157 kts 223°
2026-05-07 04:30 30.85243 -81.02479 1805 ft 156 kts 223°
2026-05-07 04:30 30.84448 -81.03352 1803 ft 156 kts 223°
2026-05-07 04:30 30.83656 -81.04223 1803 ft 157 kts 223°
2026-05-07 04:30 30.82870 -81.05094 1802 ft 155 kts 223°
2026-05-07 04:31 30.82094 -81.05964 1799 ft 154 kts 223°
2026-05-07 04:31 30.81306 -81.06834 1798 ft 157 kts 223°
2026-05-07 04:31 30.80514 -81.07716 1794 ft 156 kts 223°
2026-05-07 04:31 30.79749 -81.08611 1796 ft 157 kts 223°
2026-05-07 04:32 30.78979 -81.09516 1796 ft 158 kts 223°
2026-05-07 04:32 30.78200 -81.10394 1799 ft 156 kts 223°
2026-05-07 04:32 30.77424 -81.11287 1797 ft 157 kts 223°
2026-05-07 04:32 30.76639 -81.12182 1797 ft 157 kts 223°
2026-05-07 04:33 30.75850 -81.13062 1800 ft 158 kts 223°
2026-05-07 04:33 30.75074 -81.13966 1802 ft 157 kts 223°
2026-05-07 04:33 30.74305 -81.14870 1802 ft 157 kts 223°
2026-05-07 04:33 30.73513 -81.15758 1800 ft 159 kts 223°
2026-05-07 04:34 30.72714 -81.16644 1802 ft 159 kts 223°
2026-05-07 04:34 30.71922 -81.17530 1802 ft 158 kts 223°
2026-05-07 04:34 30.71134 -81.18412 1802 ft 157 kts 223°
2026-05-07 04:34 30.70359 -81.19284 1802 ft 155 kts 223°
2026-05-07 04:35 30.69590 -81.20166 1803 ft 156 kts 223°
2026-05-07 04:35 30.68817 -81.21053 1801 ft 158 kts 223°
2026-05-07 04:35 30.68027 -81.21939 1801 ft 158 kts 223°
2026-05-07 04:35 30.67240 -81.22823 1802 ft 156 kts 223°
2026-05-07 04:36 30.66445 -81.23689 1802 ft 157 kts 223°
2026-05-07 04:36 30.65657 -81.24579 1803 ft 159 kts 223°
2026-05-07 04:36 30.64872 -81.25486 1806 ft 160 kts 223°
2026-05-07 04:36 30.64062 -81.26374 1806 ft 159 kts 223°
2026-05-07 04:37 30.63269 -81.27259 1805 ft 157 kts 223°
2026-05-07 04:37 30.62482 -81.28144 1807 ft 159 kts 223°
2026-05-07 04:37 30.61652 -81.29025 1808 ft 165 kts 223°
2026-05-07 04:37 30.60793 -81.29925 1807 ft 168 kts 223°
2026-05-07 04:38 30.59924 -81.30845 1804 ft 170 kts 223°
2026-05-07 04:38 30.59062 -81.31755 1807 ft 167 kts 223°
2026-05-07 04:38 30.58192 -81.32675 1804 ft 170 kts 223°
2026-05-07 04:38 30.57327 -81.33587 1806 ft 168 kts 223°
2026-05-07 04:39 30.56451 -81.34476 1814 ft 165 kts 219°
2026-05-07 04:39 30.55496 -81.35161 1812 ft 159 kts 209°
2026-05-07 04:39 30.54470 -81.35631 1809 ft 160 kts 200°
2026-05-07 04:39 30.53387 -81.35947 1809 ft 161 kts 194°
2026-05-07 04:40 30.52263 -81.36157 1803 ft 166 kts 192°
2026-05-07 04:40 30.51112 -81.36364 1803 ft 168 kts 192°
2026-05-07 04:40 30.49953 -81.36588 1801 ft 169 kts 192°
2026-05-07 04:40 30.48795 -81.36795 1807 ft 168 kts 192°
2026-05-07 04:41 30.47633 -81.37018 1805 ft 169 kts 192°
2026-05-07 04:41 30.46481 -81.37240 1807 ft 168 kts 192°
2026-05-07 04:41 30.45327 -81.37463 1808 ft 169 kts 192°
2026-05-07 04:41 30.44171 -81.37696 1808 ft 169 kts 192°
2026-05-07 04:42 30.43007 -81.37920 1807 ft 169 kts 192°
2026-05-07 04:42 30.41848 -81.38169 1809 ft 169 kts 194°
2026-05-07 04:42 30.40859 -81.38781 1812 ft 160 kts 225°
2026-05-07 04:42 30.40484 -81.39925 1818 ft 157 kts 266°
2026-05-07 04:43 30.40481 -81.41249 1813 ft 166 kts 267°
2026-05-07 04:43 30.40215 -81.42527 1806 ft 165 kts 243°
2026-05-07 04:43 30.39457 -81.43550 1798 ft 171 kts 221°
2026-05-07 04:43 30.38532 -81.44331 1817 ft 158 kts 220°
2026-05-07 04:44 30.38103 -81.45455 1807 ft 158 kts 270°
2026-05-07 04:44 30.38707 -81.46481 1823 ft 162 kts 316°
2026-05-07 04:44 30.39381 -81.47566 1727 ft 177 kts 283°
2026-05-07 04:44 30.39378 -81.48952 1876 ft 161 kts 265°
2026-05-07 04:45 30.39327 -81.50292 1846 ft 166 kts 265°
2026-05-07 04:45 30.39279 -81.51646 1832 ft 169 kts 265°
2026-05-07 04:45 30.39227 -81.52984 1824 ft 168 kts 263°
2026-05-07 04:45 30.39021 -81.54321 1813 ft 167 kts 257°
2026-05-07 04:46 30.38784 -81.55617 1818 ft 167 kts 257°
2026-05-07 04:46 30.38557 -81.56949 1797 ft 169 kts 258°
2026-05-07 04:46 30.38364 -81.58311 1797 ft 169 kts 258°
2026-05-07 04:46 30.38414 -81.59576 1818 ft 154 kts 291°
2026-05-07 04:47 30.39045 -81.60595 1791 ft 164 kts 304°
2026-05-07 04:47 30.39424 -81.61821 1792 ft 164 kts 264°
2026-05-07 04:47 30.38761 -81.62713 1749 ft 160 kts 195°
2026-05-07 04:47 30.37607 -81.62419 1835 ft 174 kts 163°
2026-05-07 04:48 30.36469 -81.61929 1819 ft 169 kts 166°
2026-05-07 04:48 30.35378 -81.61750 1814 ft 153 kts 183°
2026-05-07 04:48 30.34238 -81.61740 1799 ft 172 kts 183°
2026-05-07 04:48 30.33026 -81.61729 1810 ft 171 kts 183°
2026-05-07 04:49 30.31893 -81.61855 1864 ft 145 kts 224°
2026-05-07 04:49 30.31604 -81.62821 1784 ft 152 kts 268°
2026-05-07 04:49 30.31783 -81.64111 1801 ft 171 kts 291°
2026-05-07 04:49 30.32274 -81.65440 1802 ft 182 kts 286°
2026-05-07 04:50 30.32015 -81.66748 1837 ft 167 kts 232°
2026-05-07 04:50 30.30872 -81.67158 1192 ft 180 kts 192°
2026-05-07 04:50 30.29647 -81.67410 647 ft 178 kts 192°
2026-05-07 04:50 30.28439 -81.67680 310 ft 177 kts 192°
2026-05-07 04:51 30.27237 -81.67952 42 ft 177 kts 192°
2026-05-07 04:51 30.26060 -81.68188 354 ft 180 kts 190°
2026-05-07 04:51 30.24879 -81.67942 154 ft 188 kts 146°
2026-05-07 04:51 30.24138 -81.66960 163 ft 122 kts 156°
2026-05-07 04:52 30.23596 -81.66821 56 ft 78 kts 173°
2026-05-07 04:52 30.23229 -81.66727 74 ft 36 kts 174°
2026-05-07 04:52 30.23104 -81.66702 45 ft 1 kts 181°
2026-05-07 04:52 30.23058 -81.66707 41 ft 13 kts 181°
2026-05-07 04:53 30.22925 -81.66706 43 ft 20 kts 182°
2026-05-07 04:53 30.22816 -81.66706 36 ft 18 kts 182°
2026-05-07 04:53 30.22753 -81.66684 27 ft 4 kts 133°
2026-05-07 04:53 30.22737 -81.66664 14 ft 3 kts 129°
2026-05-07 04:54 30.22719 -81.66652 9 ft 3 kts 166°
2026-05-07 04:54 30.22701 -81.66650 9 ft 6 kts 178°
2026-05-07 04:54 30.22628 -81.66646 9 ft 12 kts 174°
2026-05-07 04:54 30.22587 -81.66670 10 ft 5 kts 149°
2026-05-07 04:55 30.22585 -81.66661 9 ft 0 kts 359°